Regional Weather Roundup
Issued by NWS

Home | Current Version | Previous Version | Graphics & Text | Print | Product List | Glossary On
Versions: 1 2 3 4 5 6 7 8 9 10 11 12 13 14 15 16 17 18 19 20 21 22 23 24 25 26 27 28 29 30 31 32 33 34 35 36 37 38 39 40 41 42 43 44 45 46 47 48 49 50
000
ASUS45 KBOU 020707
RWRCO

WEATHER ROUNDUP FOR COLORADO
NATIONAL WEATHER SERVICE DENVER/BOULDER CO
1200 AM MST MON MAR 02 2015

NOTE: "FAIR" INDICATES FEW OR NO CLOUDS BELOW 12000 FEET WITH NO
SIGNIFICANT WEATHER AND/OR OBSTRUCTIONS TO VISIBILITY.

COZ001>005-013-030-031-020800-
...NORTHWEST COLORADO...

CITY           SKY/WX    TMP DP  RH WIND       PRES   REMARKS
CRAIG          CLOUDY    32  25  75 E9        30.01F WCI  24
HAYDEN         MOCLDY    28  23  80 SE7       30.02S WCI  21
MEEKER         CLOUDY    31  27  85 CALM      30.00F
MOUNT WERNER   NOT AVBL
STEAMBOAT SPGS CLOUDY    26  25  94 CALM      30.02F
WALDEN         CLOUDY    27  23  86 S7        30.02S WCI  19
$$

COZ006>008-011-020800-
...WEST CENTRAL VALLEYS...

CITY           SKY/WX    TMP DP  RH WIND       PRES   REMARKS
GRAND JUNCTION LGT RAIN  35  34  96 E6        30.02F WCI  30
MONTROSE       CLOUDY    33  32  96 VRB5      30.04F WCI  29
EAGLE          CLOUDY    32  30  93 CALM      30.06F
RIFLE          LGT SNOW  33  31  92 NW5       30.02F FOG     WCI  29
DELTA          CLOUDY    37  36  96 W5        30.03S
NUCLA          DRZL/FOG  34  34 100 N5        30.06F VSB 1/2 WCI  30
$$

COZ017>023-064>068-020800-
...SOUTHWEST COLORADO...

CITY           SKY/WX    TMP DP  RH WIND       PRES   REMARKS
DURANGO        LGT RAIN  34  32  92 CALM      30.11S
CORTEZ         CLOUDY    36  34  92 CALM      30.05F
PAGOSA SPRINGS MIX PCPN  35  35 100 CALM      30.13S
TELLURIDE      CLOUDY    35  31  88 E3        30.08F
WOLF CREEK PAS CLOUDY    25  25 100 SW17G32   30.17S WCI  11
$$

COZ009-010-012-014-032>034-037-058>063-020800-
...CENTRAL COLORADO...

CITY           SKY/WX    TMP DP  RH WIND       PRES   REMARKS
ASPEN          LGT SNOW  28  27  96 W3        30.01F FOG
BUENA VISTA    LGT SNOW  19  17  90 SE6       30.11F WCI  11
COPPER MTN     LGT SNOW  27  21  80 S20       30.05F WCI  13
BERTHOUD PASS  LGT SNOW  18  12  79 SW12G26   30.08F WCI   5
COTTONWOOD PAS LGT SNOW  27  23  86 CALM      30.07F
GUNNISON       CLOUDY    28  25  86 CALM      30.11S
KREMMLING      LGT SNOW  30  28  93 CALM      30.04F
LEADVILLE      LGT SNOW  21  19  92 S3        30.04F FOG
SALIDA         CLOUDY    21  17  84 SE12G20   30.20S WCI   9
SUNLIGHT       LGT SNOW  28  27  93 CALM        N/A
WILKERSON PASS CLOUDY    23  21  93 S7        30.09F FOG     WCI  15
$$

COZ069>075-020800-
...SAN LUIS VALLEY/SANGRE DE CRISTO MOUNTAINS...

CITY           SKY/WX    TMP DP  RH WIND       PRES   REMARKS
ALAMOSA        PTCLDY    26  24  92 N6        30.10F WCI  19
LA VETA PASS   LGT SNOW  28  28 100 S10G21    30.14S WCI  19
SAGUACHE       CLOUDY    32  30  93 CALM      30.11F
$$

COZ035-036-038>040-020800-
...NORTHERN COLORADO FRONT RANGE...

CITY           SKY/WX    TMP DP  RH WIND       PRES   REMARKS
DENVER INTL AP CLOUDY    23  18  81 SE10      30.15F WCI  12
DMNS CITY PARK   N/A     23  17  77 NW3       30.15F
AURORA         MOCLDY    19  15  84 SE9       30.15F WCI   9
FRONT RANGE AP NOT AVBL
ERIE MUNI ARPT CLOUDY    25  20  83 N5        30.18F WCI  19
BOULDER MUN AP PTCLDY    23  19  86 NE3       30.17F
CENTENNIAL     PTCLDY    18  13  80 SW7       30.13F WCI   9
BROOMFIELD     CLOUDY    23  19  86 N7        30.16F WCI  15
FORT COLLINS   MOCLDY    25  18  74 S3        30.20F
LONGMONT       LGT SNOW  27  20  75 CALM      30.21F
$$

COZ041-046-047-076>085-087-088-020800-
...PIKES PEAK/PALMER DIVIDE AND SOUTHERN FOOTHILLS...

CITY           SKY/WX    TMP DP  RH WIND       PRES   REMARKS
COLO. SPRINGS  MOCLDY    21  18  88 SE10      30.18F FOG     WCI  10
A. F. ACADEMY  CLOUDY    19  16  87 S9        30.14F WCI   8
ELLICOTT       NOT AVBL
FALCON         CLOUDY    18  17  95 S10       30.15F FOG     WCI   6
FORT CARSON    MOCLDY    20  17  89 SE9       30.17F WCI   9
LIMON          CLOUDY    23  20  88 S10       30.20F WCI  12
MONUMENT HILL  PTCLDY    18  14  86 S18       30.08F WCI   2
TRINIDAD       CLOUDY    23  20  88 E3        30.22F FOG
$$

COZ042>045-048>051-090-091-020800-
...NORTHEAST COLORADO...

CITY           SKY/WX    TMP DP  RH WIND       PRES   REMARKS
GREELEY ARPT   MOCLDY    27  16  63 SE5       30.20  WCI  21
AKRON          CLOUDY    27  18  69 S12       30.23F WCI  17
BURLINGTON     CLOUDY    28  21  75 SE8       30.28F WCI  20
WRAY           CLOUDY    32  19  58 S8        30.30F WCI  24
STERLING       MOCLDY    27  23  86 CALM      30.24F
HOLYOKE        NOT AVBL
FORT MORGAN    CLOUDY    26  20  76 SE3       30.22F
$$

COZ086-089-092>099-020800-
...SOUTHEAST COLORADO...

CITY           SKY/WX    TMP DP  RH WIND       PRES   REMARKS
PUEBLO         LGT SNOW  26  22  84 S8        30.25F FOG     WCI  18
LA JUNTA       CLOUDY    28  22  78 SE6       30.28F WCI  22
LAMAR          CLOUDY    28  23  81 S6        30.31F WCI  22
SPRINGFIELD      N/A     24  21  88 S7        30.29F WCI  16
$$



USA.gov is the U.S. government's official web portal to all federal, state and local government web resources and services.